User: anonymous   Login
Location: ????? ???????
(25.7275°N, 32.5929°E)
Time: 02:54:31
(UTC+00:00)
Language:

Cosmos 1486 Rocket - Orbit

View from above orbital plane
View from above orbital plane
View from above satellite
View from above satellite

Ground track
Ground track

The orbit data is extracted from the following two-line orbital elements,

1 14241U 83079B   21137.46488879 -.00000001  00000-0  85125-5 0  9995
2 14241  74.0574 142.6423 0018148 222.9757 136.9979 14.36222032977854
Epoch (UTC): 17 May 2021 11:09:26
Eccentricity: 0.0018148
inclination: 74.0574°
perigee height: 758 km
apogee height: 784 km
right ascension of ascending node: 142.6423°
argument of perigee: 222.9757°
revolutions per day: 14.36222032
mean anomaly at epoch: 136.9979°
orbit number at epoch: 97785

The dashed part of the orbit path shows where the satellite is in the earth's shadow,  

DLR